Weather History for KSKX - September, 2013

Change the Weather History Date:

Thursday, September 5, 2013

  Actual Average Record
Temperature  
Mean Temperature 68 °F -  
Max Temperature 84 °F 76 °F 87 °F (2010)
Min Temperature 51 °F 43 °F 35 °F (1999)
Cooling Degree Days 2    
Growing Degree Days 18 (Base 50)    
Moisture  
Dew Point 39 °F    
Average Humidity 44    
Maximum Humidity 67    
Minimum Humidity 19    
Precipitation  
Precipitation 0.00 in - - ()
Sea Level Pressure  
Sea Level Pressure 30.42 in    
Wind  
Wind Speed 5 mph (SSW)    
Max Wind Speed 16 mph    
Max Gust Speed 21 mph    
Visibility 10 miles    
Events      
Averages and records for this station are not official NWS values.
T = Trace of Precipitation, MM = Missing Value Source: NWS Daily Summary

Daily Weather History Graph

Daily Weather History Graph

Search for Another Location

Airport or City:

Trip Planner

Search our weather history database for the weather conditions in past years. The results will help you decide how hot, cold, wet, or windy it might be!

Date:

Astronomy

Sep. 05, 2013 Rise Set
Actual Time 6:37 AM MDT 7:24 PM MDT
Civil Twilight 6:11 AM MDT 7:50 PM MDT
Nautical Twilight 5:40 AM MDT 8:21 PM MDT
Astronomical Twilight 5:08 AM MDT 8:53 PM MDT
Moon 6:49 AM MDT (9/5) 7:20 PM MDT (9/5)
Length of Visible Light 13h 39m
Length of Day
12h 47m
New Moon, 0% of the Moon is Illuminated
Sep 5
New Moon
Sep 12
First Quarter
Sep 19
Full
Sep 26
Last Quarter
Oct 4
New

Hourly Weather History & Observations

Time (MDT) Temp. Dew Point Humidity Pressure Visibility Wind Dir Wind Speed Gust Speed Precip Events Conditions
12:15 AM 62.6 °F 39.2 °F 42% 30.45 in 10.0 mi East 6.9 mph - N/A   Clear
12:35 AM 60.8 °F 41.0 °F 48% 30.46 in 10.0 mi East 6.9 mph - N/A   Clear
12:55 AM 62.6 °F 41.0 °F 45% 30.46 in 10.0 mi ENE 5.8 mph - N/A   Clear
1:15 AM 62.6 °F 39.2 °F 42% 30.46 in 10.0 mi ENE 3.5 mph - N/A   Clear
1:35 AM 60.8 °F 42.8 °F 52% 30.46 in 10.0 mi Calm Calm - N/A   Clear
1:55 AM 55.4 °F 41.0 °F 58% 30.46 in 10.0 mi NNE 4.6 mph - N/A   Clear
2:15 AM 57.2 °F 42.8 °F 59% 30.46 in 10.0 mi NE 5.8 mph - N/A   Clear
2:35 AM 57.2 °F 42.8 °F 59% 30.46 in 10.0 mi SE 3.5 mph - N/A   Clear
2:55 AM 55.4 °F 42.8 °F 63% 30.46 in 10.0 mi Calm Calm - N/A   Clear
3:15 AM 55.4 °F 42.8 °F 63% 30.45 in 10.0 mi Calm Calm - N/A   Clear
3:35 AM 53.6 °F 41.0 °F 62% 30.46 in 10.0 mi Calm Calm - N/A   Clear
3:55 AM 55.4 °F 41.0 °F 58% 30.45 in 10.0 mi Calm Calm - N/A   Clear
4:15 AM 51.8 °F 41.0 °F 67% 30.45 in 10.0 mi North 3.5 mph - N/A   Clear
4:35 AM 51.8 °F 41.0 °F 67% 30.45 in 10.0 mi North 4.6 mph - N/A   Clear
4:55 AM 51.8 °F 39.2 °F 62% 30.45 in 10.0 mi North 4.6 mph - N/A   Clear
5:15 AM 51.8 °F 37.4 °F 58% 30.45 in 10.0 mi North 5.8 mph - N/A   Clear
5:35 AM 51.8 °F 37.4 °F 58% 30.46 in 10.0 mi North 3.5 mph - N/A   Clear
5:55 AM 51.8 °F 39.2 °F 62% 30.46 in 10.0 mi Calm Calm - N/A   Clear
6:15 AM 51.8 °F 39.2 °F 62% 30.47 in 10.0 mi Calm Calm - N/A   Clear
6:35 AM 51.8 °F 39.2 °F 62% 30.47 in 10.0 mi Calm Calm - N/A   Clear
6:55 AM 51.8 °F 39.2 °F 62% 30.47 in 10.0 mi North 3.5 mph - N/A   Clear
7:15 AM 51.8 °F 41.0 °F 67% 30.47 in 10.0 mi North 5.8 mph - N/A   Clear
7:35 AM 53.6 °F 39.2 °F 58% 30.47 in 10.0 mi North 3.5 mph - N/A   Clear
7:55 AM 55.4 °F 39.2 °F 54% 30.47 in 10.0 mi North 3.5 mph - N/A   Clear
8:15 AM 57.2 °F 39.2 °F 51% 30.47 in 10.0 mi Calm Calm - N/A   Clear
8:35 AM 59.0 °F 39.2 °F 48% 30.47 in 10.0 mi Calm Calm - N/A   Clear
8:55 AM 62.6 °F 39.2 °F 42% 30.47 in 10.0 mi Calm Calm - N/A   Clear
9:15 AM 66.2 °F 39.2 °F 37% 30.47 in 10.0 mi Calm Calm - N/A   Clear
9:35 AM 69.8 °F 41.0 °F 35% 30.47 in 10.0 mi Calm Calm - N/A   Clear
9:55 AM 71.6 °F 39.2 °F 31% 30.47 in 10.0 mi Calm Calm - N/A   Clear
10:15 AM 73.4 °F 37.4 °F 27% 30.47 in 10.0 mi Calm Calm - N/A   Clear
10:35 AM 73.4 °F 39.2 °F 29% 30.46 in 10.0 mi Calm Calm - N/A   Clear
10:55 AM - - N/A% 30.45 in 10.0 mi NW 5.8 mph - N/A   Clear
11:15 AM - - N/A% 30.45 in 10.0 mi West 4.6 mph - N/A   Clear
11:35 AM - - N/A% 30.44 in 10.0 mi Calm Calm - N/A   Clear
11:55 AM - - N/A% 30.43 in 10.0 mi South 5.8 mph - N/A   Clear
12:15 PM - - N/A% 30.42 in 10.0 mi WSW 3.5 mph - N/A   Clear
12:35 PM - - N/A% 30.41 in 10.0 mi South 5.8 mph - N/A   Clear
12:55 PM - - N/A% 30.40 in 10.0 mi WSW 8.1 mph - N/A   Clear
1:15 PM - - N/A% 30.40 in 10.0 mi West 4.6 mph - N/A   Clear
1:35 PM - - N/A% 30.39 in 10.0 mi SE 6.9 mph - N/A   Clear
1:55 PM - - N/A% 30.38 in 10.0 mi SW 11.5 mph - N/A   Clear
2:15 PM 84.2 °F 37.4 °F 19% 30.38 in 10.0 mi West 5.8 mph - N/A   Clear
2:35 PM 84.2 °F 37.4 °F 19% 30.37 in 10.0 mi WSW 12.7 mph 20.7 mph N/A   Clear
2:55 PM - - N/A% 30.36 in 10.0 mi SSW 15.0 mph 20.7 mph N/A   Partly Cloudy
3:15 PM - - N/A% 30.36 in 10.0 mi WNW 5.8 mph - N/A   Clear
3:35 PM - - N/A% 30.35 in 10.0 mi WSW 12.7 mph 17.3 mph N/A   Clear
3:55 PM - - N/A% 30.35 in 10.0 mi WSW 9.2 mph 20.7 mph N/A   Scattered Clouds
4:15 PM - - N/A% 30.35 in 10.0 mi SW 11.5 mph 18.4 mph N/A   Mostly Cloudy
4:35 PM - - N/A% 30.35 in 10.0 mi WSW 8.1 mph 20.7 mph N/A   Scattered Clouds
4:55 PM - - N/A% 30.35 in 10.0 mi WSW 15.0 mph - N/A   Partly Cloudy
5:15 PM - - N/A% 30.34 in 10.0 mi WSW 16.1 mph 20.7 mph N/A   Clear
5:35 PM - - N/A% 30.34 in 10.0 mi SSW 11.5 mph - N/A   Clear
5:55 PM - - N/A% 30.34 in 10.0 mi WSW 10.4 mph - N/A   Scattered Clouds
6:15 PM - - N/A% 30.34 in 10.0 mi SSW 11.5 mph - N/A   Mostly Cloudy
6:35 PM - - N/A% 30.34 in 10.0 mi WSW 11.5 mph - N/A   Mostly Cloudy
6:55 PM 80.6 °F 35.6 °F 20% 30.35 in 10.0 mi WSW 13.8 mph - N/A   Mostly Cloudy
7:15 PM 78.8 °F 35.6 °F 21% 30.35 in 10.0 mi WSW 11.5 mph - N/A   Mostly Cloudy
7:35 PM 77.0 °F 35.6 °F 22% 30.37 in 10.0 mi SSW 9.2 mph - N/A   Scattered Clouds
7:55 PM 73.4 °F 35.6 °F 25% 30.37 in 10.0 mi South 10.4 mph - N/A   Partly Cloudy
8:15 PM 73.4 °F 35.6 °F 25% 30.38 in 10.0 mi SSE 11.5 mph - N/A   Clear
8:35 PM 73.4 °F 35.6 °F 25% 30.39 in 10.0 mi SSE 10.4 mph - N/A   Clear
8:55 PM 71.6 °F 35.6 °F 27% 30.40 in 10.0 mi ESE 8.1 mph - N/A   Clear
9:15 PM 68.0 °F 37.4 °F 33% 30.40 in 10.0 mi ESE 9.2 mph - N/A   Clear
9:35 PM 66.2 °F 37.4 °F 35% 30.41 in 10.0 mi East 8.1 mph - N/A   Clear
9:55 PM 64.4 °F 37.4 °F 37% 30.41 in 10.0 mi ESE 9.2 mph - N/A   Clear
10:15 PM 66.2 °F 35.6 °F 32% 30.41 in 10.0 mi ESE 11.5 mph - N/A   Clear
10:35 PM 64.4 °F 35.6 °F 34% 30.41 in 10.0 mi East 9.2 mph - N/A   Clear
10:55 PM 64.4 °F 35.6 °F 34% 30.42 in 10.0 mi ESE 9.2 mph - N/A   Clear
11:15 PM 64.4 °F 35.6 °F 34% 30.42 in 10.0 mi ESE 8.1 mph - N/A   Clear
11:35 PM 62.6 °F 35.6 °F 37% 30.43 in 10.0 mi East 9.2 mph - N/A   Clear
11:55 PM 62.6 °F 37.4 °F 39% 30.42 in 10.0 mi East 8.1 mph - N/A   Clear